Wind_Speed
65 66 66 67 67 68 69 70 72 74 75 75 75 75 75 75 76 77 78 79 80 81 80 81 81 81 81 81 81 80 79 77 74 72 71 69 67 66 65 65 66 64
65 66 66 67 67 67 68 69 70 72 74 75 76 77 77 77 77 78 79 80 81 82 83 83 83 84 84 84 83 82 81 80 78 75 74 74 73 71 69 68 68 67
64 65 66 66 67 68 68 68 69 70 71 73 75 77 78 79 79 79 80 81 82 83 84 85 85 85 86 87 86 85 84 82 80 78 77 76 76 75 73 72 71 70
63 64 65 66 67 69 70 70 71 71 71 72 73 74 76 78 79 80 81 82 83 84 86 86 87 87 87 88 89 89 88 86 84 82 80 79 79 78 77 75 74 73
65 65 66 67 68 69 71 72 73 73 74 74 74 74 76 77 79 80 81 82 83 85 87 88 88 89 90 90 90 91 91 90 88 86 84 82 81 80 80 78 75 74
67 67 68 68 69 70 72 73 74 76 77 78 78 77 78 78 79 81 82 83 84 85 87 88 89 90 91 92 92 92 93 93 92 91 89 86 84 83 83 81 78 76
69 69 70 71 72 72 74 75 76 77 79 81 82 82 81 81 81 82 83 84 85 86 87 89 90 91 93 93 94 94 94 94 95 94 93 90 88 87 86 84 81 79
71 72 72 74 75 76 77 78 78 79 81 82 84 85 85 85 85 85 85 85 87 88 89 90 91 92 93 94 95 95 95 95 96 96 96 94 93 91 90 88 85 83
74 74 75 76 78 79 80 81 81 81 82 84 86 87 88 88 88 88 88 88 88 89 91 92 93 94 94 95 95 96 97 97 97 97 97 97 96 95 94 92 90 86
76 76 77 78 79 81 82 83 83 83 84 85 87 88 89 90 90 91 92 91 91 91 92 93 95 95 95 96 96 97 97 98 98 98 98 98 98 98 98 96 93 90
78 78 79 79 80 81 82 83 83 84 84 84 86 88 90 91 91 92 93 94 94 94 94 94 96 97 97 97 97 98 98 98 98 98 98 99 99 100 100 99 97 93
78 78 78 79 80 81 81 81 82 83 83 83 84 86 88 90 91 92 93 94 95 96 96 96 96 98 98 98 98 99 99 100 99 99 99 99 100 100 101 101 99 97
77 77 77 78 79 79 80 80 80 81 81 82 82 83 85 88 89 90 92 93 95 96 96 97 97 98 99 99 99 100 100 101 101 100 100 100 100 100 101 102 101 99
76 76 76 77 77 78 78 78 79 80 80 80 80 80 82 84 86 87 89 91 93 94 95 96 97 97 98 99 100 101 102 103 103 102 101 101 100 101 101 102 101 101
75 75 76 76 76 76 76 76 78 79 80 79 78 78 79 81 82 84 86 88 89 91 93 94 95 97 98 99 100 101 102 103 104 104 103 102 101 101 101 101 101 101
75 75 75 75 75 74 74 74 76 77 78 77 76 76 77 78 79 80 82 84 85 87 89 90 92 94 97 99 100 101 102 103 104 105 104 103 102 102 101 101 101 100
73 73 73 73 72 71 71 72 73 74 75 74 73 73 74 75 76 77 79 80 82 83 85 86 88 91 94 98 99 100 101 102 104 105 105 104 103 102 102 101 100 100
71 71 70 69 68 68 68 69 70 71 71 69 69 69 71 72 73 74 76 77 78 79 81 83 85 87 91 94 97 99 100 101 102 103 104 104 104 103 102 101 100 99
69 68 66 66 65 65 66 66 66 66 65 64 64 66 67 68 69 71 72 73 74 75 77 79 81 84 87 89 92 96 98 99 101 102 102 103 104 104 103 102 100 99
66 64 63 63 63 62 63 63 62 61 60 59 60 62 63 65 66 67 68 70 71 72 74 75 77 80 82 84 87 90 94 97 99 100 100 101 102 104 104 102 101 99
63 61 60 61 60 60 60 59 57 56 55 55 57 59 60 61 62 63 65 66 68 69 71 72 74 77 78 79 81 85 89 92 96 98 98 99 100 102 104 103 101 100
59 57 58 58 58 57 57 55 53 52 52 52 54 56 57 58 59 60 62 63 65 67 68 68 70 73 74 75 77 80 84 87 91 94 96 96 97 99 102 104 103 101
54 54 55 55 55 54 52 50 49 49 49 50 51 52 54 56 56 57 58 60 62 63 64 65 67 69 71 72 74 77 80 83 86 90 93 93 94 96 100 103 103 102
50 51 51 51 50 48 47 47 46 46 46 47 48 49 51 52 52 53 54 56 58 59 60 61 64 66 68 70 72 74 76 78 82 86 89 90 91 93 97 101 103 102
47 47 46 45 45 44 44 44 43 43 43 44 44 46 47 47 46 47 50 52 53 55 56 58 60 63 65 66 68 69 71 74 77 81 84 86 88 90 94 98 100 101
43 42 41 40 40 41 41 41 40 39 39 39 40 40 41 41 41 43 46 49 51 52 54 56 58 61 62 63 64 66 68 71 74 77 80 83 84 87 92 95 98 100
Wind_Direction
253 253 252 252 250 248 246 244 244 244 244 244 244 243 241 238 237 236 236 236 235 234 234 234 234 233 232 231 230 229 229 230 230 231 233 233 233 235 237 238 239 238
253 253 253 253 253 251 250 247 245 244 244 244 244 244 243 241 239 237 236 237 237 236 235 234 234 234 234 233 233 231 230 230 230 230 231 232 233 234 235 237 239 239
253 252 252 252 253 253 252 251 249 247 245 244 243 243 243 242 241 239 237 236 237 237 236 235 235 234 234 234 234 233 232 231 230 230 230 231 232 233 235 236 239 240
255 253 253 252 252 252 252 252 251 250 248 246 244 243 242 242 242 241 239 238 236 236 237 236 236 235 234 234 234 234 233 232 231 230 230 230 231 232 234 235 237 239
258 257 256 255 254 253 252 252 252 251 251 249 247 245 243 242 242 241 240 239 237 236 236 236 236 236 235 234 234 234 234 233 232 231 231 231 231 232 233 234 236 237
260 259 258 256 255 254 253 252 251 251 250 250 249 248 246 244 242 241 240 239 238 237 236 236 236 236 236 235 234 234 233 233 233 232 231 231 231 231 233 234 235 236
261 260 259 257 256 254 253 252 251 250 249 249 249 249 248 246 244 242 241 240 239 238 237 236 235 235 235 236 235 234 233 233 233 232 232 232 232 232 232 233 234 235
260 259 259 258 257 255 254 252 251 250 249 248 248 248 248 247 247 245 243 241 240 238 237 236 235 235 234 235 235 235 234 233 233 232 231 231 232 232 233 233 234 234
261 260 259 258 258 257 255 253 252 250 250 249 248 247 247 246 246 246 245 243 241 239 238 237 236 235 234 234 234 235 234 233 233 232 231 231 231 232 233 233 234 234
262 261 260 259 258 258 257 255 254 252 250 249 249 248 247 246 245 245 245 244 242 241 239 238 237 236 235 234 233 234 234 234 233 232 231 231 230 231 232 233 233 234
263 262 261 260 259 259 258 257 255 253 251 250 249 248 248 246 245 244 244 243 242 241 240 238 237 237 236 234 233 233 233 234 233 233 232 231 230 230 231 232 233 233
264 263 262 261 260 259 258 257 256 255 253 250 249 248 247 246 245 244 243 242 241 241 240 238 237 237 236 235 234 233 233 233 233 233 232 231 230 229 230 231 232 232
264 263 262 261 260 260 259 258 257 255 254 251 249 247 247 246 244 243 242 241 241 240 239 238 237 236 236 236 235 233 233 232 232 232 232 231 230 229 229 230 230 231
264 263 262 261 260 260 259 258 258 257 255 252 250 248 246 245 244 243 242 241 240 239 238 238 237 236 236 235 235 234 233 232 232 231 231 231 230 230 229 229 229 230
264 263 262 262 261 260 259 258 257 256 255 253 251 248 246 245 244 243 242 241 240 239 238 237 236 236 235 235 234 234 233 233 232 231 230 230 230 230 229 228 228 229
264 263 262 262 261 260 259 257 256 255 254 253 251 248 247 245 244 243 242 241 240 239 238 237 236 235 235 234 233 233 233 233 232 231 230 229 229 229 229 228 228 228
264 263 262 261 261 259 258 257 255 254 253 252 250 248 246 245 244 243 242 241 240 239 238 237 236 234 234 233 233 232 232 232 233 231 230 229 228 229 229 228 228 227
265 264 262 261 260 259 257 256 255 253 252 251 249 247 246 244 243 242 241 240 239 238 237 236 235 234 233 233 232 231 231 231 232 232 230 228 228 228 228 228 227 227
265 264 263 262 260 259 257 256 255 253 252 251 249 247 245 243 241 240 240 239 238 237 237 236 235 234 233 232 231 231 230 230 231 232 231 229 227 227 227 227 227 227
265 264 263 262 260 259 258 257 255 254 252 250 247 245 243 241 240 239 238 238 238 237 236 235 234 234 233 232 231 230 230 230 230 231 231 230 228 226 226 226 226 226
265 264 262 261 260 259 258 257 256 254 251 248 245 243 242 240 239 238 237 237 237 236 235 234 233 233 233 231 230 230 229 229 230 230 230 230 228 226 226 225 225 225
264 263 261 260 259 258 258 257 255 252 248 245 243 242 241 240 239 238 237 236 236 235 234 233 232 233 232 231 229 229 228 228 229 230 229 229 228 227 225 225 224 224
261 260 258 257 257 257 256 255 252 248 245 243 242 241 240 240 239 238 238 237 236 235 234 233 232 232 231 230 229 228 228 227 228 229 229 228 227 227 225 224 223 223
258 256 255 255 255 255 254 251 248 246 244 242 241 241 241 240 240 240 239 238 237 236 234 233 232 231 230 229 228 227 227 226 227 228 228 227 226 226 225 224 223 222
256 254 254 254 254 252 250 249 247 245 244 243 242 242 243 242 241 240 239 239 237 236 234 232 231 231 229 228 228 227 225 225 226 226 227 226 225 225 225 224 222 221
254 254 253 252 251 250 248 247 246 245 245 244 243 243 243 241 239 238 238 238 237 235 233 231 230 229 228 227 227 226 224 223 223 224 225 225 224 223 224 223 222 221
Height
10595 10597 10598 10600 10602 10604 10607 10610 10612 10613 10616 10619 10622 10625 10628 10632 10635 10639 10642 10645 10648 10651 10655 10658 10661 10665 10668 10672 10675 10679 10683 10686 10690 10693 10695 10699 10702 10704 10707 10709 10710 10714
10586 10587 10589 10590 10592 10594 10597 10599 10601 10603 10606 10609 10612 10614 10617 10621 10624 10628 10632 10635 10637 10641 10644 10648 10651 10654 10658 10662 10666 10671 10675 10678 10682 10685 10688 10692 10695 10697 10701 10703 10704 10708
10576 10578 10579 10581 10582 10584 10586 10587 10589 10592 10595 10598 10601 10604 10607 10609 10613 10616 10620 10624 10627 10630 10633 10637 10640 10644 10647 10651 10655 10660 10666 10670 10674 10677 10680 10684 10687 10690 10694 10696 10698 10702
10565 10567 10569 10571 10572 10574 10575 10576 10578 10580 10583 10585 10589 10593 10595 10598 10601 10604 10608 10612 10616 10619 10622 10625 10629 10632 10636 10640 10644 10649 10655 10660 10665 10668 10672 10676 10679 10683 10686 10688 10692 10695
10554 10556 10558 10559 10561 10563 10564 10566 10567 10568 10570 10572 10575 10580 10583 10586 10589 10592 10595 10599 10603 10607 10610 10614 10617 10621 10625 10628 10633 10638 10643 10648 10654 10659 10663 10667 10671 10674 10677 10681 10685 10689
10542 10544 10546 10548 10549 10551 10552 10554 10555 10557 10558 10559 10562 10566 10569 10573 10576 10579 10582 10586 10590 10594 10598 10602 10606 10609 10612 10616 10621 10626 10631 10637 10642 10648 10654 10659 10663 10665 10668 10673 10678 10682
10531 10532 10534 10535 10537 10538 10539 10541 10543 10545 10546 10547 10549 10551 10555 10559 10562 10566 10569 10573 10577 10581 10585 10589 10593 10596 10600 10603 10608 10614 10619 10624 10630 10636 10643 10649 10653 10656 10659 10664 10670 10674
10519 10520 10522 10522 10523 10524 10525 10526 10529 10531 10533 10535 10536 10538 10541 10545 10548 10551 10556 10560 10564 10568 10572 10575 10579 10583 10587 10591 10596 10601 10606 10612 10618 10624 10632 10638 10642 10646 10650 10655 10660 10665
10506 10508 10509 10509 10509 10509 10510 10512 10515 10517 10519 10521 10523 10524 10527 10531 10534 10537 10541 10545 10550 10554 10558 10562 10565 10569 10574 10579 10584 10588 10593 10600 10606 10612 10619 10626 10632 10636 10639 10644 10649 10656
10493 10493 10494 10495 10495 10495 10496 10497 10500 10503 10505 10508 10509 10510 10513 10517 10521 10523 10527 10531 10535 10539 10544 10548 10552 10556 10561 10567 10572 10576 10581 10588 10593 10600 10608 10614 10620 10625 10628 10632 10640 10647
10478 10478 10479 10480 10480 10480 10481 10483 10485 10488 10490 10493 10495 10496 10498 10502 10506 10509 10512 10516 10520 10524 10529 10534 10538 10543 10548 10554 10560 10565 10569 10575 10581 10588 10595 10602 10608 10613 10617 10622 10630 10637
10463 10463 10464 10465 10465 10465 10467 10468 10470 10472 10474 10477 10480 10482 10483 10486 10490 10493 10497 10501 10505 10509 10515 10520 10525 10530 10535 10541 10547 10552 10557 10562 10568 10575 10582 10589 10595 10601 10606 10611 10619 10626
10449 10449 10449 10450 10450 10451 10452 10454 10455 10456 10458 10461 10464 10467 10468 10470 10474 10478 10481 10486 10490 10495 10500 10505 10511 10517 10522 10528 10534 10540 10545 10549 10556 10562 10569 10576 10582 10589 10595 10600 10608 10614
10435 10435 10435 10436 10437 10438 10439 10439 10440 10441 10442 10445 10448 10451 10453 10455 10459 10463 10467 10471 10476 10481 10485 10491 10497 10504 10509 10514 10520 10525 10530 10536 10542 10549 10556 10563 10570 10576 10582 10589 10596 10603
10421 10421 10421 10421 10423 10424 10425 10425 10425 10426 10427 10429 10432 10436 10439 10442 10445 10450 10453 10458 10462 10466 10471 10477 10484 10490 10495 10500 10505 10511 10516 10521 10528 10535 10543 10550 10557 10563 10570 10578 10585 10593
10408 10408 10407 10408 10409 10410 10410 10410 10411 10411 10413 10415 10419 10423 10426 10429 10433 10437 10441 10444 10448 10453 10458 10465 10471 10477 10480 10485 10490 10497 10503 10508 10514 10522 10531 10538 10545 10552 10559 10567 10575 10584
10395 10395 10394 10395 10396 10396 10396 10396 10397 10398 10400 10403 10407 10410 10414 10417 10422 10426 10429 10432 10436 10441 10447 10452 10459 10463 10466 10470 10477 10484 10490 10495 10500 10508 10517 10526 10534 10541 10549 10557 10565 10574
10381 10381 10381 10382 10383 10383 10383 10383 10385 10386 10389 10392 10396 10399 10403 10407 10411 10414 10417 10421 10426 10431 10436 10441 10446 10450 10453 10458 10465 10471 10478 10483 10487 10494 10504 10514 10523 10531 10538 10546 10555 10564
10368 10368 10369 10369 10370 10370 10371 10372 10374 10376 10379 10383 10387 10389 10393 10397 10400 10404 10408 10412 10417 10422 10426 10430 10434 10438 10442 10448 10453 10459 10466 10471 10476 10482 10491 10501 10511 10519 10527 10535 10545 10554
10355 10356 10358 10358 10358 10359 10361 10362 10365 10368 10371 10375 10378 10380 10383 10387 10391 10395 10399 10402 10407 10411 10415 10420 10424 10426 10431 10437 10443 10449 10455 10460 10465 10471 10479 10489 10499 10508 10516 10525 10535 10544
10345 10346 10347 10347 10348 10350 10351 10353 10356 10360 10363 10366 10369 10371 10374 10378 10382 10386 10389 10392 10396 10400 10404 10410 10413 10415 10420 10428 10434 10439 10444 10449 10454 10461 10468 10477 10487 10497 10505 10514 10524 10533
10336 10337 10337 10338 10339 10341 10343 10345 10349 10352 10355 10358 10361 10363 10366 10369 10372 10376 10379 10382 10386 10390 10394 10399 10402 10405 10411 10418 10424 10428 10433 10439 10445 10450 10457 10466 10476 10485 10494 10503 10512 10522
10328 10328 10329 10330 10332 10334 10336 10338 10341 10344 10347 10351 10354 10356 10358 10360 10363 10367 10370 10373 10377 10381 10385 10389 10392 10396 10401 10407 10412 10417 10422 10430 10435 10439 10446 10456 10465 10474 10482 10490 10501 10512
10320 10320 10321 10323 10325 10327 10329 10332 10334 10338 10341 10344 10347 10348 10350 10352 10356 10360 10363 10365 10369 10372 10376 10380 10383 10386 10391 10397 10402 10407 10414 10421 10426 10430 10437 10446 10454 10462 10470 10478 10490 10501
10312 10313 10315 10317 10319 10321 10323 10325 10329 10333 10336 10338 10340 10341 10343 10347 10351 10353 10355 10357 10360 10364 10367 10371 10374 10377 10382 10388 10393 10399 10405 10412 10417 10422 10428 10436 10444 10452 10459 10468 10480 10491
10306 10308 10310 10312 10313 10315 10317 10320 10324 10328 10330 10332 10334 10336 10337 10341 10344 10345 10346 10349 10352 10355 10359 10362 10365 10369 10374 10380 10384 10390 10396 10402 10408 10414 10420 10426 10434 10442 10448 10457 10470 10481